Location: Asheville, NC
(35.6000°N, 82.5500°W)
Time: 11:38:50
(UTC-04:00)

Vanguard 2 - Pass Details

Date: 13 February 2018
Orbit: 552 x 2940 km, 32.9° (Epoch: 22 May)

Event Time Altitude Azimuth Distance (km) Brightness Sun altitude
Rises 17:52:16 0° 213° (SSW) 5,314 12.7 2.7°
Reaches altitude 10° 17:57:25 10° 199° (SSW) 3,822 11.7 1.7°
Maximum altitude 18:03:41 20° 158° (SSE) 2,499 10.1 0.4°
Drops below altitude 10° 18:08:18 10° 112° (ESE) 2,697 9.9 -0.5°
Sets 18:11:09 0° 95° (E) 3,361 10.2 -1.0°
Enters shadow 18:11:20 -1° 94° (E) 3,414 10.2 -1.0°
